Olean, NY

12:35 PM EDT on June 27, 2017 (GMT -0400)
Cattaraugus County-Olean

Weather History for KOLE - July, 2013

Change the Weather History Date:

Monday, July 29, 2013

  Actual Average (KBFD) Record (KBFD)
Temperature  
Mean Temperature 58 °F -  
Max Temperature 64 °F 74 °F 87 °F (1988)
Min Temperature 51 °F 54 °F 43 °F (1972)
Degree Days  
Heating Degree Days 8    
Growing Degree Days 8 (Base 50)    
Moisture  
Dew Point 51 °F    
Average Humidity 81    
Maximum Humidity 100    
Minimum Humidity 63    
Precipitation  
Precipitation 0.00 in - - ()
Sea Level Pressure  
Sea Level Pressure 30.10 in    
Wind  
Wind Speed 4 mph (WSW)    
Max Wind Speed 10 mph    
Max Gust Speed -    
Visibility 10 miles    
Events      
Averages and records for this station are not official NWS values.
T = Trace of Precipitation, MM = Missing Value Source: NWS Daily Summary

Daily Weather History Graph

Daily Weather History Graph

Search for Another Location

Airport or City:

Trip Planner

Search our weather history database for the weather conditions in past years. The results will help you decide how hot, cold, wet, or windy it might be!

Date:

Astronomy

Jul. 29, 2013 Rise Set
Actual Time 6:03 AM EDT 8:35 PM EDT
Civil Twilight 5:31 AM EDT 9:07 PM EDT
Nautical Twilight 4:51 AM EDT 9:47 PM EDT
Astronomical Twilight 4:06 AM EDT 10:32 PM EDT
Moon No Moon Rise 1:53 PM EDT (7/29)
Length of Visible Light 15h 36m
Length of Day
14h 32m
Waning Gibbous, 51% of the Moon is Illuminated
Jul 29
Waning Gibbous
Jul 29
Last Quarter
Aug 6
New
Aug 14
First Quarter
Aug 20
Full

Hourly Weather History & Observations

Time (EDT) Temp. Dew Point Humidity Pressure Visibility Wind Dir Wind Speed Gust Speed Precip Events Conditions
12:15 AM 53.6 °F 51.8 °F 94% 30.04 in 10.0 mi SSW 4.6 mph - N/A   Clear
12:35 AM 53.6 °F 51.8 °F 94% 30.05 in 10.0 mi SW 4.6 mph - N/A   Clear
12:55 AM 53.6 °F 51.8 °F 94% 30.04 in 10.0 mi SSW 3.5 mph - N/A   Clear
1:15 AM 53.6 °F 50.0 °F 88% 30.04 in 10.0 mi SSW 3.5 mph - N/A   Clear
1:35 AM 53.6 °F 51.8 °F 94% 30.04 in 10.0 mi SSW 3.5 mph - N/A   Clear
1:55 AM 53.6 °F 50.0 °F 88% 30.03 in 10.0 mi SSW 4.6 mph - N/A   Clear
2:15 AM 51.8 °F 51.8 °F 100% 30.03 in 10.0 mi SSW 3.5 mph - N/A   Clear
2:35 AM 51.8 °F 50.0 °F 94% 30.03 in 10.0 mi SW 3.5 mph - N/A   Clear
2:55 AM 51.8 °F 50.0 °F 94% 30.04 in 10.0 mi SSW 5.8 mph - N/A   Clear
3:15 AM 51.8 °F 50.0 °F 94% 30.04 in 10.0 mi SSW 4.6 mph - N/A   Clear
3:55 AM 51.8 °F 50.0 °F 94% 30.04 in 10.0 mi SSW 3.5 mph - N/A   Clear
4:15 AM 51.8 °F 50.0 °F 94% 30.04 in 10.0 mi SSW 4.6 mph - N/A   Scattered Clouds
4:35 AM 51.8 °F 50.0 °F 94% 30.04 in 10.0 mi SSW 4.6 mph - N/A   Mostly Cloudy
4:55 AM 51.8 °F 50.0 °F 94% 30.04 in 10.0 mi SSW 4.6 mph - N/A   Overcast
5:15 AM 51.8 °F 50.0 °F 94% 30.05 in 10.0 mi SSW 3.5 mph - N/A   Overcast
5:35 AM 51.8 °F 50.0 °F 94% 30.05 in 10.0 mi Calm Calm - N/A   Overcast
5:55 AM 51.8 °F 50.0 °F 94% 30.05 in 10.0 mi SW 4.6 mph - N/A   Overcast
6:15 AM 51.8 °F 50.0 °F 94% 30.06 in 10.0 mi SW 3.5 mph - N/A   Mostly Cloudy
6:35 AM 51.8 °F 50.0 °F 94% 30.06 in 10.0 mi SW 6.9 mph - N/A   Mostly Cloudy
6:55 AM 53.6 °F 50.0 °F 88% 30.06 in 10.0 mi SW 6.9 mph - N/A   Scattered Clouds
7:15 AM 53.6 °F 50.0 °F 88% 30.06 in 10.0 mi SW 4.6 mph - N/A   Scattered Clouds
7:35 AM 53.6 °F 50.0 °F 88% 30.06 in 10.0 mi SW 5.8 mph - N/A   Mostly Cloudy
7:55 AM 53.6 °F 50.0 °F 88% 30.07 in 10.0 mi SW 5.8 mph - N/A   Overcast
8:15 AM 53.6 °F 50.0 °F 88% 30.07 in 10.0 mi WSW 5.8 mph - N/A   Overcast
8:35 AM 53.6 °F 50.0 °F 88% 30.08 in 10.0 mi WSW 5.8 mph - N/A   Overcast
8:55 AM 55.4 °F 50.0 °F 82% 30.08 in 10.0 mi WSW 4.6 mph - N/A   Overcast
9:15 AM 55.4 °F 51.8 °F 88% 30.08 in 10.0 mi WSW 3.5 mph - N/A   Overcast
9:35 AM 55.4 °F 51.8 °F 88% 30.08 in 10.0 mi West 8.1 mph - N/A   Overcast
9:55 AM 59.0 °F 51.8 °F 77% 30.08 in 10.0 mi West 10.4 mph - N/A   Overcast
10:15 AM 59.0 °F 50.0 °F 72% 30.08 in 10.0 mi WNW 5.8 mph - N/A   Mostly Cloudy
10:35 AM 59.0 °F 51.8 °F 77% 30.09 in 10.0 mi West 8.1 mph - N/A   Overcast
10:55 AM 60.8 °F 50.0 °F 68% 30.08 in 10.0 mi West 5.8 mph - N/A   Overcast
11:15 AM 59.0 °F 50.0 °F 72% 30.09 in 10.0 mi West 6.9 mph - N/A   Mostly Cloudy
11:35 AM 60.8 °F 50.0 °F 68% 30.10 in 10.0 mi West 5.8 mph - N/A   Mostly Cloudy
11:55 AM 60.8 °F 50.0 °F 68% 30.10 in 10.0 mi WSW 4.6 mph - N/A   Overcast
12:15 PM 60.8 °F 50.0 °F 68% 30.10 in 10.0 mi WSW 4.6 mph - N/A   Overcast
12:35 PM 60.8 °F 50.0 °F 68% 30.11 in 10.0 mi WSW 4.6 mph - N/A   Overcast
12:55 PM 60.8 °F 50.0 °F 68% 30.11 in 10.0 mi Calm Calm - N/A   Overcast
1:15 PM 60.8 °F 50.0 °F 68% 30.11 in 10.0 mi WSW 4.6 mph - N/A   Overcast
1:35 PM 60.8 °F 51.8 °F 72% 30.11 in 10.0 mi West 3.5 mph - N/A   Overcast
1:55 PM 62.6 °F 51.8 °F 68% 30.11 in 10.0 mi West 3.5 mph - N/A   Overcast
2:15 PM 60.8 °F 51.8 °F 72% 30.12 in 10.0 mi WNW 6.9 mph - N/A   Overcast
2:35 PM 59.0 °F 51.8 °F 77% 30.12 in 10.0 mi WNW 3.5 mph - N/A   Overcast
2:55 PM 59.0 °F 50.0 °F 72% 30.13 in 10.0 mi WNW 3.5 mph - N/A   Overcast
3:15 PM 59.0 °F 50.0 °F 72% 30.13 in 10.0 mi WNW 3.5 mph - N/A   Overcast
3:35 PM 60.8 °F 50.0 °F 68% 30.12 in 10.0 mi Calm Calm - N/A   Overcast
3:55 PM 60.8 °F 50.0 °F 68% 30.12 in 10.0 mi Calm Calm - N/A   Overcast
4:15 PM 64.4 °F 53.6 °F 68% 30.12 in 10.0 mi Calm Calm - N/A   Overcast
4:35 PM 62.6 °F 53.6 °F 72% 30.12 in 10.0 mi Calm Calm - N/A   Overcast
4:55 PM 62.6 °F 53.6 °F 72% 30.12 in 10.0 mi WSW 4.6 mph - N/A   Overcast
5:15 PM 62.6 °F 51.8 °F 68% 30.13 in 10.0 mi SW 4.6 mph - N/A   Overcast
5:35 PM 62.6 °F 51.8 °F 68% 30.12 in 10.0 mi WSW 5.8 mph - N/A   Overcast
5:55 PM 64.4 °F 51.8 °F 64% 30.13 in 10.0 mi SW 5.8 mph - N/A   Mostly Cloudy
6:15 PM 62.6 °F 50.0 °F 63% 30.13 in 10.0 mi West 6.9 mph - N/A   Mostly Cloudy
6:35 PM 62.6 °F 51.8 °F 68% 30.14 in 10.0 mi West 4.6 mph - N/A   Overcast
6:55 PM 60.8 °F 51.8 °F 72% 30.15 in 10.0 mi Calm Calm - N/A   Mostly Cloudy
7:15 PM 60.8 °F 51.8 °F 72% 30.15 in 10.0 mi West 5.8 mph - N/A   Mostly Cloudy
7:35 PM 60.8 °F 51.8 °F 72% 30.15 in 10.0 mi West 3.5 mph - N/A   Scattered Clouds
7:55 PM 59.0 °F 51.8 °F 77% 30.16 in 10.0 mi Calm Calm - N/A   Mostly Cloudy
8:15 PM 59.0 °F 51.8 °F 77% 30.16 in 10.0 mi WSW 4.6 mph - N/A   Mostly Cloudy
8:35 PM 59.0 °F 51.8 °F 77% 30.16 in 10.0 mi Calm Calm - N/A   Mostly Cloudy
8:55 PM 57.2 °F 51.8 °F 82% 30.17 in 10.0 mi West 3.5 mph - N/A   Mostly Cloudy
9:15 PM 57.2 °F 51.8 °F 82% 30.17 in 10.0 mi Calm Calm - N/A   Mostly Cloudy
9:35 PM 57.2 °F 51.8 °F 82% 30.18 in 10.0 mi Calm Calm - N/A   Mostly Cloudy
9:55 PM 57.2 °F 51.8 °F 82% 30.18 in 10.0 mi Calm Calm - N/A   Mostly Cloudy
10:15 PM 55.4 °F 51.8 °F 88% 30.19 in 10.0 mi Calm Calm - N/A   Mostly Cloudy
10:35 PM 55.4 °F 51.8 °F 88% 30.19 in 10.0 mi Calm Calm - N/A   Overcast
10:55 PM 55.4 °F 51.8 °F 88% 30.19 in 10.0 mi SW 3.5 mph - N/A   Scattered Clouds
11:15 PM 55.4 °F 51.8 °F 88% 30.20 in 10.0 mi SW 4.6 mph - N/A   Scattered Clouds
11:35 PM 55.4 °F 51.8 °F 88% 30.20 in 10.0 mi WSW 3.5 mph - N/A   Mostly Cloudy
11:55 PM 55.4 °F 51.8 °F 88% 30.20 in 10.0 mi West 3.5 mph - N/A   Mostly Cloudy